Wind_Speed
38 36 37 39 38 37 35 34 33 32 31 32 31 29 29 28 27 27 25 23 22 20 20 20 19 17 16 16 19 18 16 14 14 15 15 17 18 16 14 11 10 10
39 37 37 39 39 38 37 35 34 32 32 32 32 30 29 27 26 26 26 25 23 21 21 21 20 19 18 17 17 19 19 16 15 15 15 16 18 17 15 13 11 11
41 39 38 39 41 40 38 36 34 32 32 32 31 31 30 28 26 26 25 25 24 23 22 22 21 21 21 19 17 19 22 19 16 15 14 15 18 17 16 14 11 11
43 41 41 41 41 42 40 38 35 33 31 31 31 31 30 29 27 26 25 25 25 24 24 24 23 23 22 21 19 20 22 21 17 17 15 15 17 18 17 15 13 12
45 44 43 42 42 41 41 40 38 36 34 33 32 31 30 29 28 27 26 26 26 26 25 25 26 25 24 24 23 22 23 22 20 19 18 17 16 18 19 17 15 14
44 44 43 42 41 41 41 41 41 39 38 37 35 34 33 31 30 29 28 28 28 28 28 28 28 28 27 26 26 26 25 25 23 22 21 20 18 17 18 19 18 16
42 43 42 42 41 41 41 42 41 40 39 38 38 37 36 35 33 32 31 30 30 30 31 30 30 30 30 29 29 28 27 27 26 25 24 23 21 19 19 20 20 19
42 42 42 41 41 41 42 42 41 41 40 39 38 38 37 37 36 35 34 33 33 33 33 33 32 31 30 31 30 30 29 28 27 27 27 26 24 22 21 20 21 21
42 41 41 41 41 41 41 42 41 41 40 39 39 38 37 37 37 35 34 35 35 35 34 34 34 33 31 31 31 31 30 29 28 27 27 28 27 26 24 22 21 22
41 41 40 40 40 41 41 42 42 41 40 40 39 38 38 38 37 36 35 35 36 36 35 35 35 34 33 32 32 31 31 31 30 28 27 27 28 27 26 25 23 22
41 40 40 40 41 41 41 41 41 41 40 40 39 39 38 38 37 37 36 36 37 36 36 36 36 36 35 33 32 32 32 32 31 30 29 28 28 27 26 26 25 24
41 41 40 41 41 41 40 40 40 40 40 40 40 39 38 38 37 37 37 37 38 37 37 37 37 36 36 35 34 33 33 32 32 32 31 30 29 27 26 26 25 25
41 41 41 40 41 41 40 39 39 39 39 40 40 39 38 38 37 38 38 38 38 38 38 38 37 37 37 36 35 34 33 33 33 32 32 32 31 29 28 27 26 26
40 40 40 40 40 41 40 39 39 39 39 39 39 39 39 38 38 38 38 38 39 39 39 39 38 38 37 36 35 34 34 34 33 33 33 32 32 31 30 29 29 28
38 38 38 39 39 40 40 40 39 39 39 38 38 39 39 39 38 37 37 38 39 39 39 39 38 38 38 37 36 35 34 34 34 34 34 33 33 33 32 32 31 30
37 37 37 38 39 39 40 40 39 39 38 38 39 39 39 39 38 37 37 38 38 38 38 38 38 39 40 39 38 37 36 35 35 35 35 34 33 33 33 33 33 33
37 37 37 37 39 39 39 40 39 38 38 38 39 39 39 39 38 37 37 38 38 38 38 38 38 39 40 41 40 39 38 36 35 35 35 35 34 34 33 34 34 34
38 38 38 38 39 39 39 39 39 38 38 37 38 38 39 38 38 38 38 37 38 38 38 38 39 40 40 41 41 41 40 38 37 36 35 35 35 35 35 34 34 34
38 38 39 39 39 40 39 38 38 38 38 38 37 38 38 38 39 39 39 38 37 37 38 38 39 40 41 41 41 41 41 40 38 36 36 35 36 36 36 35 35 34
39 39 39 39 39 39 39 38 38 38 38 38 37 37 37 37 38 39 39 39 38 38 38 38 39 41 41 42 42 42 41 41 39 37 36 35 36 36 36 36 35 35
39 39 39 39 39 38 38 38 38 38 38 37 36 36 37 37 38 38 39 40 40 39 38 38 39 41 42 42 43 42 41 41 41 39 36 35 35 35 35 36 36 36
38 38 38 38 38 38 37 38 38 38 38 37 36 36 36 36 37 38 39 40 40 39 38 38 40 41 42 43 43 42 41 40 41 40 38 36 36 35 35 36 36 35
37 38 37 37 37 37 37 37 37 37 37 37 36 35 35 36 36 37 38 39 40 40 39 39 40 41 42 43 43 42 41 40 40 40 39 38 38 37 37 37 37 36
37 38 37 37 37 37 37 37 37 37 37 37 37 36 36 36 36 36 37 38 39 40 40 40 40 40 42 43 43 43 42 41 41 40 39 39 39 38 38 38 38 38
38 38 38 38 38 38 37 37 37 37 37 37 38 37 36 35 35 35 36 37 39 40 41 41 40 40 41 43 43 43 42 42 41 39 37 38 39 38 37 37 39 39
37 39 39 39 39 38 37 37 37 37 36 37 37 37 36 35 35 35 36 36 37 38 40 41 41 40 41 42 43 42 42 42 41 39 38 38 39 38 36 36 38 39
Wind_Direction
204 202 201 198 196 196 197 200 204 203 201 202 201 200 201 203 204 206 209 210 211 209 202 200 203 210 218 218 213 212 209 207 208 207 206 206 205 206 211 217 218 223
205 203 201 199 198 199 199 200 204 205 203 203 203 203 203 204 205 208 210 210 211 211 204 202 205 210 214 213 213 215 211 208 209 205 205 208 206 206 212 217 223 231
206 204 202 200 200 201 201 201 203 206 206 205 205 206 205 205 206 209 211 211 213 213 208 206 208 208 210 212 213 213 210 209 208 203 203 207 205 207 212 218 226 232
206 206 204 203 202 203 203 203 204 206 207 208 208 209 208 207 207 208 211 213 215 215 210 209 210 209 210 213 212 209 208 211 211 207 206 207 208 211 213 218 228 232
207 207 206 205 205 204 204 205 207 208 210 212 212 212 212 210 209 210 212 214 216 217 215 212 212 211 211 214 214 211 209 211 213 212 211 211 212 215 215 219 227 231
208 209 209 208 207 207 207 209 211 212 213 215 215 215 215 214 214 214 216 217 218 218 217 215 214 213 214 216 218 218 214 213 214 214 214 215 216 218 218 220 225 230
209 210 211 211 210 209 210 212 213 214 215 215 216 217 217 216 217 219 221 220 220 220 220 218 217 215 215 217 220 222 222 219 218 217 218 218 218 220 222 222 223 227
210 211 212 212 212 212 212 213 214 215 216 215 216 218 219 219 219 221 222 222 222 223 222 220 219 218 217 218 220 223 225 224 221 220 220 220 219 221 223 224 224 226
210 211 212 213 213 213 214 214 214 215 216 216 217 218 219 220 221 221 221 222 223 223 223 222 221 220 219 220 221 223 225 223 221 220 219 218 219 221 223 225 226 226
210 211 212 213 214 215 216 216 216 216 216 216 218 219 219 220 222 222 222 223 223 223 223 222 221 221 221 222 223 224 224 223 222 222 221 220 221 222 223 226 228 227
209 211 212 213 215 216 217 217 216 216 216 217 218 219 220 221 221 221 222 223 223 223 223 222 222 221 221 222 225 226 226 225 224 224 225 225 225 225 226 227 229 229
209 210 212 213 215 217 219 219 218 217 217 217 218 219 220 221 221 220 221 222 223 224 224 224 223 222 221 223 225 225 226 226 226 226 227 229 230 230 229 231 232 233
209 210 211 213 215 217 218 219 220 219 218 218 219 219 220 221 221 221 221 222 224 224 224 225 224 223 223 224 224 225 225 226 227 229 230 231 233 234 234 235 236 237
210 211 212 214 216 217 218 219 220 220 220 219 219 219 220 221 221 222 222 222 224 225 225 225 224 224 223 223 223 224 224 226 227 229 231 233 235 236 236 238 240 241
210 211 213 214 215 217 218 218 219 220 220 220 220 219 220 221 222 223 223 223 224 225 225 225 224 224 224 224 224 223 224 226 227 228 230 233 235 236 238 239 241 243
209 211 212 214 215 217 218 218 219 219 219 220 220 220 220 221 222 222 223 223 224 224 224 224 223 224 225 226 226 226 225 225 226 227 229 231 234 236 237 239 240 243
208 210 211 214 215 217 218 218 219 219 220 220 220 220 220 220 221 221 222 223 224 224 224 223 224 225 226 227 228 228 227 225 225 227 228 229 232 234 236 238 239 241
207 208 210 213 215 216 217 218 218 219 220 220 220 220 219 219 220 220 221 222 223 223 223 223 224 226 227 228 229 230 229 227 226 226 227 228 230 233 236 238 239 241
206 208 209 211 213 215 216 217 218 218 219 220 220 220 219 219 219 220 221 222 222 223 223 224 225 226 228 229 230 231 230 228 227 226 227 228 230 232 234 236 239 240
206 206 208 210 212 213 214 215 216 217 219 220 220 220 219 219 218 219 220 221 222 223 223 224 225 226 228 229 231 232 231 230 228 228 229 230 231 232 234 236 238 239
206 206 207 208 209 210 211 213 215 217 217 218 220 220 220 219 218 219 219 220 222 222 223 224 225 227 228 229 231 232 232 231 230 230 231 232 234 235 236 237 239 240
206 206 206 206 207 207 209 211 213 215 216 217 218 220 220 220 219 219 219 219 221 222 222 224 226 227 228 230 232 232 232 231 230 230 231 233 235 237 238 240 241 241
207 206 205 205 205 205 207 210 212 214 215 216 216 218 220 220 219 219 219 219 220 220 221 223 225 227 228 230 232 232 230 229 229 229 230 233 236 238 240 242 243 243
208 207 206 205 205 206 207 209 211 213 214 215 215 217 219 220 219 220 219 219 219 220 221 223 225 227 228 229 231 231 230 228 228 228 229 232 236 239 240 242 243 245
209 208 207 206 207 207 208 209 210 212 213 214 215 217 219 220 220 220 219 219 220 220 221 223 225 227 229 229 230 231 229 228 227 226 228 232 236 238 239 241 243 245
212 210 208 208 208 208 209 209 210 211 212 213 214 216 218 220 220 220 220 220 220 220 221 222 224 226 228 230 230 230 229 228 225 224 226 231 235 237 238 239 241 243
Height
824 825 826 828 829 831 833 834 836 837 839 840 841 843 844 845 847 849 850 851 853 853 854 855 856 856 857 857 858 858 859 860 860 861 861 861 862 862 862 862 863 863
821 823 825 826 828 830 831 833 834 835 837 838 839 841 842 844 846 847 848 850 851 852 853 854 855 855 856 856 857 857 858 859 859 860 860 861 861 861 862 862 862 862
819 821 823 824 826 828 830 831 833 834 835 837 838 840 841 843 844 845 847 848 849 851 852 853 854 854 855 855 856 856 857 858 858 859 860 860 861 861 861 861 861 862
816 818 820 822 823 825 828 830 832 833 834 836 837 838 840 841 843 844 845 847 848 849 850 851 852 853 854 854 855 855 856 857 857 858 859 859 860 860 860 861 861 861
813 815 817 819 821 823 826 828 829 831 833 834 835 837 838 840 841 842 844 845 846 847 848 849 850 851 852 853 854 854 855 856 856 857 858 858 859 859 859 860 860 860
811 813 815 817 819 821 823 824 826 828 830 832 833 835 836 837 839 840 841 842 844 845 846 847 848 849 850 851 852 853 854 854 855 856 857 857 858 858 859 859 859 859
808 811 813 815 817 819 820 821 823 825 827 829 831 832 834 835 836 837 839 840 841 842 843 845 846 847 848 849 850 851 852 853 854 855 855 856 857 857 857 858 858 858
805 808 810 813 815 816 817 818 820 822 824 827 828 830 831 833 834 835 836 837 838 840 841 842 843 845 846 847 848 849 850 851 852 853 853 854 855 855 856 856 857 857
802 805 807 810 812 813 814 815 817 819 821 823 825 827 829 830 831 833 834 835 836 837 838 840 841 843 844 845 846 847 848 849 850 851 851 852 853 853 854 855 855 855
799 802 805 807 809 810 811 813 815 816 818 820 822 824 825 827 829 830 832 833 834 835 836 838 839 840 842 843 844 845 846 847 848 849 849 850 851 851 852 853 854 854
796 798 801 803 805 807 809 810 812 814 816 817 819 821 822 824 826 827 829 830 831 832 834 835 837 838 839 840 842 843 844 845 846 847 847 848 849 850 850 851 852 852
792 794 797 799 802 804 806 808 810 811 813 814 816 818 820 821 822 824 826 827 829 830 831 832 834 835 837 838 839 841 842 843 844 845 846 846 847 848 849 849 850 850
787 790 793 796 798 801 803 806 808 809 811 812 813 815 817 818 820 821 823 824 826 827 829 830 831 833 834 836 837 839 840 841 842 843 844 845 845 846 847 847 848 848
783 787 789 792 795 798 800 803 805 807 808 809 811 813 814 815 817 818 820 821 823 824 826 827 829 830 831 833 835 837 838 839 840 841 842 843 844 844 845 845 846 846
780 784 786 789 792 794 796 799 801 803 805 807 809 810 811 813 814 816 817 819 820 821 823 824 826 827 828 830 832 834 835 837 838 839 840 841 841 842 842 843 843 844
777 780 783 785 788 790 792 795 797 800 802 804 805 807 808 810 812 813 815 816 817 818 820 821 822 824 825 827 829 831 832 834 835 836 837 838 839 840 840 840 841 841
772 775 778 781 783 786 788 791 794 797 799 801 802 804 806 807 809 810 811 813 814 815 817 818 819 820 822 824 825 827 829 831 832 833 834 835 836 837 837 837 838 838
766 769 772 775 778 781 784 787 790 793 795 797 799 801 803 804 806 807 808 810 811 812 813 814 815 817 818 820 822 824 826 828 829 830 831 832 833 834 834 835 835 836
761 763 766 770 773 776 779 783 786 789 791 794 796 798 800 801 802 803 805 806 808 809 810 811 812 814 815 817 819 820 823 825 826 827 828 829 830 831 831 832 832 833
755 757 761 764 768 771 775 778 781 784 787 790 793 795 796 797 799 800 802 803 804 805 806 807 809 810 812 813 815 817 819 822 824 825 826 826 827 828 829 829 830 831
750 752 756 759 763 767 769 772 776 779 782 786 789 791 792 794 795 797 798 799 800 802 803 804 805 806 808 810 812 814 816 819 821 822 823 824 824 825 826 826 827 828
746 749 751 754 758 761 764 767 771 774 778 782 785 787 789 790 792 793 794 795 797 798 800 800 801 802 804 806 808 811 813 816 818 819 820 821 821 822 823 823 824 825
743 746 748 751 754 756 759 762 766 770 774 778 781 783 784 786 787 789 791 792 793 795 796 796 797 799 800 802 804 807 810 812 814 816 817 818 818 818 819 820 821 821
739 742 744 747 749 751 754 758 762 766 770 773 776 778 780 782 784 785 787 788 790 791 792 793 794 795 797 799 801 803 806 808 810 812 813 814 814 815 816 816 817 818
735 737 739 741 743 746 749 753 757 761 765 769 772 774 776 779 780 782 783 784 786 787 789 790 791 792 793 795 797 800 802 805 807 808 810 810 811 811 812 813 813 814
730 732 734 736 738 741 745 749 753 757 761 764 767 770 773 775 777 778 779 780 782 784 785 786 787 789 790 791 794 796 798 801 803 804 806 806 806 807 808 809 809 810